Location: Eckley Miners' Village
(40.9930°N, 75.8630°W)
Time: 11:30:16
(UTC-04:00)

Vanguard 1 Rocket - Pass Details

Date: 09 March 2026
Orbit: 654 x 4213 km, 34.3° (Epoch: 11 April)

Event Time Altitude Azimuth Distance (km) Brightness Sun altitude
Rises 13:42:36 0° 267° (W) 3,329 10.4 44.2°
Reaches altitude 10° 13:44:49 10° 258° (WSW) 2,603 10.1 44.2°
Maximum altitude 13:50:22 36° 192° (SSW) 1,889 11.7 44.0°
Drops below altitude 10° 13:59:47 10° 132° (SE) 4,434 11.3 43.5°
Sets 14:04:53 0° 125° (SE) 6,063 11.8 43.3°
